| time (UTC) | temp C | wind direction | speed KPH | gust KPH | rain 1hr cm | rain 24hr cm | rain mn cm | humidity % | barometer mb |
| 20260506091528 | 3 | 268 | 6.4 | 14.5 | 0.00 | 0.00 | 0.00 | 68 | 1014.7 |
| 20260506090024 | 3 | 288 | 4.8 | 14.5 | 0.00 | 0.00 | 0.00 | 67 | 1014.5 |
| 20260506084533 | 3 | 288 | 8.0 | 14.5 | 0.00 | 0.00 | 0.00 | 68 | 1014.4 |
| 20260506083023 | 3 | 293 | 9.7 | 14.5 | 0.00 | 0.00 | 0.00 | 68 | 1014.3 |
| 20260506081523 | 3 | 291 | 6.4 | 14.5 | 0.00 | 0.00 | 0.00 | 67 | 1014.2 |
| 20260506073012 | 4 | 274 | 9.7 | 16.1 | 0.00 | 0.00 | 0.00 | 66 | 1014.0 |
| 20260506071510 | 4 | 279 | 11.3 | 0.0 | 0.00 | 0.00 | 0.00 | 64 | 1014.1 |
| 20260506061613 | 5 | 278 | 9.7 | 17.7 | 0.00 | 0.00 | 0.00 | 61 | 1013.7 |
| 20260506044540 | 6 | 288 | 8.0 | 19.3 | 0.00 | 0.00 | 0.00 | 58 | 1012.8 |
| 20260506043039 | 7 | 290 | 8.0 | 17.7 | 0.00 | 0.00 | 0.00 | 56 | 1012.8 |
| 20260506041539 | 7 | 289 | 11.3 | 19.3 | 0.00 | 0.00 | 0.00 | 56 | 1012.7 |
| 20260506040040 | 7 | 262 | 9.7 | 17.7 | 0.00 | 0.00 | 0.00 | 54 | 1012.7 |
| 20260506034536 | 7 | 278 | 11.3 | 20.9 | 0.00 | 0.00 | 0.00 | 53 | 1012.7 |
| 20260506033040 | 7 | 285 | 11.3 | 20.9 | 0.00 | 0.00 | 0.00 | 52 | 1012.6 |
| 20260506031535 | 8 | 271 | 9.7 | 17.7 | 0.00 | 0.00 | 0.00 | 52 | 1012.7 |
| 20260506030035 | 8 | 277 | 12.9 | 19.3 | 0.00 | 0.00 | 0.00 | 52 | 1012.6 |
| 20260506024534 | 8 | 287 | 11.3 | 19.3 | 0.00 | 0.00 | 0.00 | 50 | 1012.4 |
| 20260506023101 | 8 | 271 | 9.7 | 19.3 | 0.00 | 0.00 | 0.00 | 50 | 1012.2 |
| 20260506021532 | 9 | 272 | 12.9 | 22.5 | 0.00 | 0.00 | 0.00 | 50 | 1012.0 |
| 20260506020029 | 9 | 263 | 12.9 | 22.5 | 0.00 | 0.00 | 0.00 | 50 | 1011.8 |
| 20260506014523 | 9 | 270 | 12.9 | 19.3 | 0.00 | 0.00 | 0.00 | 46 | 1011.4 |
| 20260506013020 | 9 | 278 | 4.8 | 16.1 | 0.00 | 0.00 | 0.00 | 45 | 1011.3 |
| 20260506011518 | 10 | 289 | 6.4 | 16.1 | 0.00 | 0.00 | 0.00 | 46 | 1011.1 |
| 20260506010033 | 10 | 292 | 8.0 | 22.5 | 0.00 | 0.00 | 0.00 | 46 | 1010.8 |
| 20260506004516 | 10 | 250 | 17.7 | 27.4 | 0.00 | 0.00 | 0.00 | 44 | 1010.6 |
| 20260506003015 | 10 | 278 | 19.3 | 27.4 | 0.00 | 0.00 | 0.00 | 44 | 1010.5 |
| 20260506001514 | 10 | 275 | 17.7 | 25.7 | 0.00 | 0.00 | 0.00 | 42 | 1010.5 |
| 20260506000013 | 10 | 265 | 12.9 | 24.1 | 0.00 | 0.00 | 0.00 | 44 | 1010.3 |
| 20260505234531 | 10 | 286 | 12.9 | 22.5 | 0.00 | 0.00 | 0.00 | 43 | 1010.2 |
| 20260505233012 | 11 | 266 | 17.7 | 27.4 | 0.00 | 0.00 | 0.00 | 46 | 1010.2 |
| 20260505231512 | 11 | 270 | 14.5 | 24.1 | 0.00 | 0.00 | 0.00 | 47 | 1010.1 |
| 20260505230011 | 11 | 266 | 16.1 | 32.2 | 0.00 | 0.00 | 0.00 | 44 | 1010.2 |
| 20260505224511 | 11 | 235 | 17.7 | 27.4 | 0.00 | 0.00 | 0.00 | 43 | 1010.1 |
| 20260505223010 | 11 | 299 | 12.9 | 25.7 | 0.00 | 0.00 | 0.00 | 44 | 1010.0 |
| 20260505221609 | 11 | 298 | 11.3 | 22.5 | 0.00 | 0.00 | 0.00 | 43 | 1009.9 |
| 20260505220009 | 11 | 281 | 17.7 | 25.7 | 0.00 | 0.00 | 0.00 | 45 | 1010.0 |
| 20260505214509 | 11 | 264 | 19.3 | 27.4 | 0.00 | 0.00 | 0.00 | 44 | 1010.1 |
| 20260505213008 | 11 | 284 | 17.7 | 29.0 | 0.00 | 0.00 | 0.00 | 44 | 1010.2 |
| 20260505211506 | 11 | 252 | 19.3 | 27.4 | 0.00 | 0.00 | 0.00 | 47 | 1010.2 |
| 20260505210006 | 11 | 273 | 17.7 | 29.0 | 0.00 | 0.00 | 0.00 | 45 | 1010.0 |
| 20260505204506 | 11 | 250 | 20.9 | 30.6 | 0.00 | 0.00 | 0.00 | 46 | 1010.1 |
| 20260505203013 | 11 | 247 | 19.3 | 25.7 | 0.00 | 0.00 | 0.00 | 46 | 1010.3 |
| 20260505201504 | 11 | 248 | 22.5 | 27.4 | 0.00 | 0.00 | 0.00 | 46 | 1010.3 |
| 20260505200004 | 12 | 296 | 6.4 | 30.6 | 0.00 | 0.00 | 0.00 | 43 | 1010.3 |
| 20260505194503 | 12 | 286 | 14.5 | 27.4 | 0.00 | 0.00 | 0.00 | 43 | 1010.4 |
| 20260505193000 | 11 | 240 | 8.0 | 29.0 | 0.00 | 0.00 | 0.00 | 39 | 1010.4 |
| 20260505191600 | 11 | 273 | 1.6 | 24.1 | 0.00 | 0.00 | 0.00 | 36 | 1010.5 |
| 20260505190059 | 12 | 265 | 1.6 | 12.9 | 0.00 | 0.00 | 0.00 | 39 | 1010.6 |
| 20260505184556 | 11 | 265 | 1.6 | 25.7 | 0.00 | 0.00 | 0.00 | 41 | 1010.7 |
| 20260505183056 | 10 | 250 | 8.0 | 32.2 | 0.00 | 0.00 | 0.00 | 40 | 1010.6 |
| 20260505181554 | 11 | 280 | 8.0 | 22.5 | 0.00 | 0.00 | 0.00 | 43 | 1010.6 |
| 20260505180107 | 10 | 262 | 12.9 | 24.1 | 0.00 | 0.00 | 0.00 | 47 | 1010.7 |
| 20260505174603 | 10 | 236 | 9.7 | 22.5 | 0.00 | 0.00 | 0.00 | 43 | 1010.8 |
| 20260505173052 | 10 | 252 | 4.8 | 24.1 | 0.00 | 0.00 | 0.00 | 43 | 1010.7 |
| 20260505171550 | 11 | 300 | 4.8 | 20.9 | 0.00 | 0.00 | 0.00 | 45 | 1010.6 |
| 20260505170049 | 10 | 236 | 8.0 | 20.9 | 0.00 | 0.00 | 0.00 | 41 | 1010.6 |
| 20260505164550 | 10 | 241 | 14.5 | 27.4 | 0.00 | 0.00 | 0.00 | 46 | 1010.7 |
| 20260505163049 | 10 | 253 | 11.3 | 24.1 | 0.00 | 0.00 | 0.00 | 46 | 1010.5 |
| 20260505161548 | 10 | 255 | 6.4 | 14.5 | 0.00 | 0.00 | 0.00 | 47 | 1010.5 |
| 20260505153042 | 10 | 247 | 6.4 | 12.9 | 0.00 | 0.00 | 0.00 | 46 | 1010.6 |
| 20260505151537 | 9 | 263 | 0.0 | 9.7 | 0.00 | 0.00 | 0.00 | 49 | 1010.7 |
| 20260505124531 | 5 | 252 | 6.4 | 11.3 | 0.00 | 0.00 | 0.00 | 67 | 1010.0 |
| 20260505123023 | 5 | 250 | 4.8 | 9.7 | 0.00 | 0.00 | 0.00 | 67 | 1009.8 |
| 20260505121522 | 4 | 242 | 3.2 | 8.0 | 0.00 | 0.00 | 0.00 | 70 | 1009.6 |
| 20260505120020 | 3 | 240 | 0.0 | 0.0 | 0.00 | 0.00 | 0.00 | 68 | 1009.3 |
| 20260505114518 | 3 | 240 | 0.0 | 0.0 | 0.00 | 0.00 | 0.00 | 68 | 1009.0 |
| 20260505113116 | 2 | 240 | 0.0 | 0.0 | 0.00 | 0.00 | 0.00 | 68 | 1008.9 |
| 20260505111513 | 2 | 240 | 0.0 | 0.0 | 0.00 | 0.00 | 0.00 | 66 | 1008.6 |
| 20260505101559 | 5 | 259 | 8.0 | 14.5 | 0.00 | 0.00 | 0.00 | 63 | 1007.8 |
| 20260505100056 | 5 | 259 | 9.7 | 16.1 | 0.00 | 0.00 | 0.00 | 62 | 1007.5 |
| 20260505094554 | 6 | 254 | 11.3 | 16.1 | 0.00 | 0.00 | 0.00 | 62 | 1007.3 |
| 20260505093050 | 6 | 248 | 6.4 | 16.1 | 0.00 | 0.00 | 0.00 | 62 | 1007.3 |